START_TIME,STEP,MOV.,AL01,t_acc.,AL02,t_acc.,E37,t_acc.,H21,t_acc.
1979-07-29 18:00:33.390 ,1,1,0.,24.0,0.,24.0,5.,24.0,0.,24.0
1979-07-29 18:00:57.390 ,2,1,0.,24.0,0.,24.0,0.,24.0,0.,24.0
1979-07-29 18:01:21.390 ,6,1,0.,24.0,0.,24.0,0.,24.0,0.,24.0
1979-07-29 18:01:45.390 ,5,1,17.,24.0,0.,24.0,1.,24.0,0.,24.0
1979-07-29 18:02:09.390 ,1,1,0.,24.0,0.,24.0,1.,24.0,0.,24.0
1979-07-29 18:02:33.390 ,2,1,0.,24.0,0.,24.0,1.,24.0,0.,24.0
1979-07-29 18:02:57.390 ,6,1,0.,24.0,0.,24.0,0.,24.0,0.,24.0
1979-07-29 18:03:21.390 ,5,1,13.,24.0,0.,24.0,0.,24.0,0.,24.0
1979-07-29 18:03:45.390 ,1,1,0.,24.0,0.,24.0,1.,24.0,0.,24.0
1979-07-29 18:04:09.390 ,2,1,0.,24.0,0.,24.0,0.,24.0,0.,24.0
1979-07-29 18:04:33.390 ,6,1,1.,24.0,0.,24.0,2.,24.0,0.,24.0
1979-07-29 18:04:57.390 ,5,1,13.,24.0,0.,24.0,0.,24.0,0.,24.0
1979-07-29 18:05:21.390 ,1,1,0.,24.0,0.,24.0,0.,24.0,0.,24.0
1979-07-29 18:05:45.390 ,0,0,0.,24.0,0.,24.0,0.,24.0,0.,24.0
1979-07-29 18:06:09.390 ,0,0,0.,24.0,1.,24.0,1.,24.0,0.,24.0
1979-07-29 18:06:33.390 ,5,1,16.,24.0,0.,24.0,0.,24.0,0.,24.0
1979-07-29 18:06:57.390 ,5,0,0.,24.0,0.,24.0,1.,24.0,0.,24.0
1979-07-29 18:07:21.390 ,4,1,0.,24.0,0.,24.0,2.,24.0,0.,24.0
1979-07-29 18:07:45.390 ,4,0,0.,24.0,0.,24.0,5.,24.0,0.,24.0
1979-07-29 18:08:09.390 ,3,1,0.,24.0,0.,24.0,1.,24.0,0.,24.0
1979-07-29 18:08:33.390 ,3,0,1.,24.0,0.,24.0,0.,24.0,0.,24.0
1979-07-29 18:08:57.390 ,2,1,1.,24.0,0.,24.0,2.,24.0,0.,24.0
1979-07-29 18:09:21.390 ,2,0,0.,24.0,0.,24.0,1.,24.0,0.,24.0
1979-07-29 18:09:45.390 ,1,1,0.,24.0,0.,24.0,0.,24.0,0.,24.0
1979-07-29 18:10:09.390 ,1,0,0.,24.0,0.,24.0,3.,24.0,0.,24.0
1979-07-29 18:10:33.390 ,0,1,0.,24.0,0.,24.0,0.,24.0,0.,24.0
1979-07-29 18:10:57.390 ,0,0,0.,24.0,0.,24.0,2.,24.0,0.,24.0
1979-07-29 18:11:21.390 ,0,1,0.,24.0,0.,24.0,1.,24.0,0.,24.0
1979-07-29 18:11:45.390 ,0,0,0.,24.0,0.,24.0,0.,24.0,0.,24.0
1979-07-29 18:12:09.390 ,1,1,0.,24.0,1.,24.0,0.,24.0,0.,24.0
1979-07-29 18:12:33.390 ,1,0,0.,24.0,0.,24.0,1.,24.0,0.,24.0
1979-07-29 18:12:57.390 ,2,1,0.,24.0,0.,24.0,1.,24.0,0.,24.0
1979-07-29 18:13:21.390 ,2,0,1.,24.0,0.,24.0,0.,24.0,0.,24.0
1979-07-29 18:13:45.390 ,3,1,0.,24.0,0.,24.0,1.,24.0,0.,24.0
1979-07-29 18:14:09.390 ,3,0,0.,24.0,0.,24.0,1.,24.0,0.,24.0
1979-07-29 18:14:33.390 ,4,1,0.,24.0,0.,24.0,0.,24.0,0.,24.0
1979-07-29 18:14:57.390 ,4,0,0.,24.0,0.,24.0,0.,24.0,0.,24.0
1979-07-29 18:15:21.390 ,5,1,0.,24.0,0.,24.0,2.,24.0,0.,24.0
1979-07-29 18:15:45.390 ,5,0,0.,24.0,0.,24.0,0.,24.0,0.,24.0
1979-07-29 18:16:09.390 ,6,1,0.,24.0,0.,24.0,0.,24.0,0.,24.0
1979-07-29 18:16:33.390 ,6,0,0.,24.0,0.,24.0,2.,24.0,0.,24.0
1979-07-29 18:16:57.390 ,7,1,8.,24.0,1.,24.0,0.,24.0,0.,24.0
1979-07-29 18:17:21.390 ,7,0,37.,24.0,0.,24.0,1.,24.0,0.,24.0
1979-07-29 18:17:45.390 ,7,1,40.,24.0,0.,24.0,2.,24.0,0.,24.0
1979-07-29 18:18:09.390 ,7,0,26.,24.0,0.,24.0,0.,24.0,0.,24.0
1979-07-29 18:18:33.390 ,6,1,30.,24.0,0.,24.0,2.,24.0,0.,24.0
1979-07-29 18:18:57.390 ,6,0,0.,24.0,0.,24.0,1.,24.0,0.,24.0
1979-07-29 18:19:21.390 ,5,1,0.,24.0,0.,24.0,0.,24.0,0.,24.0
1979-07-29 18:19:45.390 ,5,0,0.,24.0,0.,24.0,0.,24.0,0.,24.0
1979-07-29 18:20:09.390 ,4,1,0.,24.0,0.,24.0,0.,24.0,0.,24.0
1979-07-29 18:20:33.390 ,4,0,0.,24.0,0.,24.0,1.,24.0,0.,24.0
1979-07-29 18:20:57.390 ,3,1,0.,24.0,0.,24.0,0.,24.0,0.,24.0
1979-07-29 18:21:21.390 ,3,0,0.,24.0,0.,24.0,1.,24.0,0.,24.0
1979-07-29 18:21:45.390 ,2,1,1.,24.0,0.,24.0,0.,24.0,0.,24.0
1979-07-29 18:22:09.390 ,2,0,0.,24.0,0.,24.0,1.,24.0,0.,24.0
1979-07-29 18:22:33.390 ,1,1,0.,24.0,0.,24.0,0.,24.0,0.,24.0
1979-07-29 18:22:57.390 ,1,0,0.,24.0,0.,24.0,0.,24.0,0.,24.0
1979-07-29 18:23:21.390 ,0,1,0.,24.0,0.,24.0,0.,24.0,0.,24.0
1979-07-29 18:23:45.390 ,0,0,0.,24.0,0.,24.0,0.,24.0,0.,24.0
1979-07-29 18:24:09.390 ,0,1,1.,24.0,0.,24.0,0.,24.0,0.,24.0
1979-07-29 18:24:33.390 ,0,0,1.,24.0,0.,24.0,4.,24.0,0.,24.0
1979-07-29 18:24:57.390 ,1,1,0.,24.0,0.,24.0,0.,24.0,0.,24.0
1979-07-29 18:25:21.390 ,1,0,0.,24.0,0.,24.0,1.,24.0,0.,24.0
1979-07-29 18:25:45.390 ,2,1,0.,24.0,0.,24.0,1.,24.0,0.,24.0
1979-07-29 18:26:09.390 ,2,0,0.,24.0,0.,24.0,1.,24.0,0.,24.0
1979-07-29 18:26:33.390 ,3,1,0.,24.0,0.,24.0,2.,24.0,0.,24.0
1979-07-29 18:26:57.390 ,3,0,0.,24.0,0.,24.0,2.,24.0,0.,24.0
1979-07-29 18:27:21.390 ,4,1,0.,24.0,0.,24.0,0.,24.0,0.,24.0
1979-07-29 18:27:45.390 ,4,0,0.,24.0,0.,24.0,1.,24.0,0.,24.0
1979-07-29 18:28:09.390 ,5,1,0.,24.0,0.,24.0,2.,24.0,0.,24.0
1979-07-29 18:28:33.390 ,5,0,0.,24.0,0.,24.0,0.,24.0,0.,24.0
1979-07-29 18:28:57.390 ,6,1,0.,24.0,0.,24.0,2.,24.0,0.,24.0
1979-07-29 18:29:21.390 ,6,0,0.,24.0,0.,24.0,0.,24.0,0.,24.0
1979-07-29 18:29:45.390 ,7,1,7.,24.0,0.,24.0,0.,24.0,0.,24.0
1979-07-29 18:30:09.390 ,7,0,37.,24.0,0.,24.0,0.,24.0,0.,24.0
1979-07-29 18:30:33.390 ,7,1,40.,24.0,0.,24.0,0.,24.0,0.,24.0
1979-07-29 18:30:57.390 ,7,0,35.,24.0,0.,24.0,2.,24.0,0.,24.0
1979-07-29 18:31:21.390 ,6,1,20.,24.0,0.,24.0,1.,24.0,0.,24.0
1979-07-29 18:31:45.390 ,6,0,1.,24.0,0.,24.0,2.,24.0,0.,24.0
1979-07-29 18:32:09.390 ,5,1,0.,24.0,0.,24.0,2.,24.0,0.,24.0
1979-07-29 18:32:33.390 ,5,0,0.,24.0,0.,24.0,3.,24.0,0.,24.0
1979-07-29 18:32:57.390 ,4,1,0.,24.0,0.,24.0,1.,24.0,0.,24.0
1979-07-29 18:33:21.390 ,4,0,0.,24.0,0.,24.0,1.,24.0,0.,24.0
1979-07-29 18:33:45.390 ,3,1,0.,24.0,0.,24.0,2.,24.0,0.,24.0
1979-07-29 18:34:09.390 ,3,0,0.,24.0,0.,24.0,0.,24.0,0.,24.0
1979-07-29 18:34:33.390 ,2,1,0.,24.0,0.,24.0,0.,24.0,0.,24.0
1979-07-29 18:34:57.390 ,2,0,0.,24.0,0.,24.0,0.,24.0,0.,24.0
1979-07-29 18:35:21.390 ,1,1,0.,24.0,0.,24.0,2.,24.0,0.,24.0
1979-07-29 18:35:45.390 ,1,0,1.,24.0,0.,24.0,0.,24.0,0.,24.0
1979-07-29 18:36:09.390 ,0,1,0.,24.0,0.,24.0,1.,24.0,0.,24.0
1979-07-29 18:36:33.390 ,0,0,0.,24.0,0.,24.0,0.,24.0,0.,24.0
1979-07-29 18:36:57.390 ,0,1,0.,24.0,0.,24.0,2.,24.0,0.,24.0
1979-07-29 18:37:21.390 ,0,0,0.,24.0,0.,24.0,0.,24.0,0.,24.0
1979-07-29 18:37:45.390 ,1,1,0.,24.0,0.,24.0,0.,24.0,0.,24.0
1979-07-29 18:38:09.390 ,1,0,0.,24.0,0.,24.0,1.,24.0,0.,24.0
1979-07-29 18:38:33.390 ,2,1,0.,24.0,0.,24.0,2.,24.0,0.,24.0
1979-07-29 18:38:57.390 ,2,0,0.,24.0,0.,24.0,1.,24.0,0.,24.0
1979-07-29 18:39:21.390 ,3,1,0.,24.0,0.,24.0,0.,24.0,0.,24.0
1979-07-29 18:39:45.390 ,0,0,,0,,0,,0,,0
1979-07-29 18:40:10.590 ,4,1,0.,24.0,0.,24.0,0.,24.0,0.,24.0
1979-07-29 18:40:33.390 ,4,0,1.,24.0,0.,24.0,2.,24.0,0.,24.0
1979-07-29 18:40:57.390 ,5,1,0.,24.0,0.,24.0,0.,24.0,0.,24.0
1979-07-29 18:41:21.390 ,5,0,0.,24.0,0.,24.0,1.,24.0,0.,24.0
1979-07-29 18:41:45.390 ,6,1,0.,24.0,0.,24.0,0.,24.0,0.,24.0
1979-07-29 18:42:09.390 ,6,0,0.,24.0,0.,24.0,2.,24.0,0.,24.0
1979-07-29 18:42:33.390 ,7,0,11.,24.0,0.,24.0,1.,24.0,0.,24.0
1979-07-29 18:42:57.390 ,7,0,30.,24.0,0.,24.0,4.,24.0,0.,24.0
1979-07-29 18:43:21.390 ,5,1,18.,24.0,0.,24.0,0.,24.0,0.,24.0
1979-07-29 18:43:45.390 ,1,1,0.,24.0,0.,24.0,0.,24.0,0.,24.0
1979-07-29 18:44:09.390 ,2,1,0.,24.0,0.,24.0,2.,24.0,0.,24.0
1979-07-29 18:44:33.390 ,6,1,0.,24.0,0.,24.0,0.,24.0,0.,24.0
1979-07-29 18:44:57.390 ,5,1,14.,24.0,0.,24.0,3.,24.0,0.,24.0
1979-07-29 18:45:21.390 ,1,1,0.,24.0,0.,24.0,2.,24.0,0.,24.0
1979-07-29 18:45:45.390 ,2,1,0.,24.0,0.,24.0,0.,24.0,0.,24.0
1979-07-29 18:46:09.390 ,6,1,0.,24.0,0.,24.0,1.,24.0,0.,24.0
1979-07-29 18:46:33.390 ,5,1,13.,24.0,0.,24.0,0.,24.0,0.,24.0
1979-07-29 18:46:57.390 ,1,1,0.,24.0,0.,24.0,0.,24.0,0.,24.0
1979-07-29 18:47:21.390 ,2,1,0.,24.0,0.,24.0,1.,24.0,0.,24.0
1979-07-29 18:47:45.390 ,6,1,0.,24.0,0.,24.0,2.,24.0,0.,24.0
1979-07-29 18:48:09.390 ,5,1,14.,24.0,0.,24.0,0.,24.0,0.,24.0
1979-07-29 18:48:33.390 ,1,1,0.,24.0,0.,24.0,0.,24.0,0.,24.0
1979-07-29 18:48:57.390 ,2,1,1.,24.0,0.,24.0,0.,24.0,0.,24.0
1979-07-29 18:49:21.390 ,6,1,0.,24.0,0.,24.0,0.,24.0,0.,24.0
1979-07-29 18:49:45.390 ,0,0,17.,24.0,0.,24.0,1.,24.0,0.,24.0
1979-07-29 18:50:09.390 ,0,0,,0,,0,,0,,0
1979-07-29 18:50:44.790 ,0,0,1.,24.0,0.,24.0,1.,24.0,0.,24.0
1979-07-29 18:50:57.390 ,6,1,0.,24.0,0.,24.0,2.,24.0,0.,24.0
1979-07-29 18:51:21.390 ,5,1,18.,24.0,0.,24.0,1.,24.0,0.,24.0
1979-07-29 18:51:45.390 ,1,1,0.,24.0,0.,24.0,0.,24.0,0.,24.0
1979-07-29 18:52:09.390 ,2,1,0.,24.0,0.,24.0,2.,24.0,0.,24.0
1979-07-29 18:52:33.390 ,6,1,0.,24.0,0.,24.0,0.,24.0,0.,24.0
1979-07-29 18:52:57.390 ,5,1,22.,24.0,0.,24.0,1.,24.0,0.,24.0
1979-07-29 18:53:21.390 ,1,1,1.,24.0,0.,24.0,0.,24.0,0.,24.0
1979-07-29 18:53:45.390 ,0,0,0.,24.0,0.,24.0,1.,24.0,0.,24.0
1979-07-29 18:54:09.390 ,0,0,0.,24.0,0.,24.0,1.,24.0,0.,24.0
1979-07-29 18:54:33.390 ,5,1,20.,24.0,0.,24.0,1.,24.0,0.,24.0
1979-07-29 18:54:57.390 ,5,0,0.,24.0,0.,24.0,3.,24.0,0.,24.0
1979-07-29 18:55:21.390 ,4,1,0.,24.0,0.,24.0,1.,24.0,0.,24.0
1979-07-29 18:55:45.390 ,4,0,0.,24.0,0.,24.0,2.,24.0,0.,24.0
1979-07-29 18:56:09.390 ,3,1,0.,24.0,0.,24.0,1.,24.0,0.,24.0
1979-07-29 18:56:33.390 ,3,0,0.,24.0,0.,24.0,0.,24.0,0.,24.0
1979-07-29 18:56:57.390 ,2,1,0.,24.0,0.,24.0,0.,24.0,0.,24.0
1979-07-29 18:57:21.390 ,2,0,0.,24.0,0.,24.0,1.,24.0,0.,24.0
1979-07-29 18:57:45.390 ,1,1,0.,24.0,0.,24.0,3.,24.0,0.,24.0
1979-07-29 18:58:09.390 ,1,0,0.,24.0,0.,24.0,2.,24.0,0.,24.0
1979-07-29 18:58:33.390 ,0,1,0.,24.0,0.,24.0,2.,24.0,0.,24.0
1979-07-29 18:58:57.390 ,0,0,0.,24.0,0.,24.0,1.,24.0,0.,24.0
1979-07-29 18:59:21.390 ,0,1,0.,24.0,0.,24.0,1.,24.0,0.,24.0
1979-07-29 18:59:45.390 ,0,0,,0,,0,,0,,0
1979-07-29 19:01:12.990 ,0,0,,0,,0,,0,,0
1979-07-29 19:01:21.390 ,0,0,1.,24.0,0.,24.0,1.,24.0,0.,24.0
1979-07-29 19:01:45.390 ,3,1,0.,24.0,0.,24.0,0.,24.0,0.,24.0
1979-07-29 19:02:09.390 ,3,0,0.,24.0,0.,24.0,0.,24.0,0.,24.0
1979-07-29 19:02:33.390 ,4,1,0.,24.0,0.,24.0,0.,24.0,0.,24.0
1979-07-29 19:02:57.390 ,4,0,0.,24.0,0.,24.0,0.,24.0,0.,24.0
1979-07-29 19:03:21.390 ,5,1,2.,24.0,0.,24.0,1.,24.0,0.,24.0
1979-07-29 19:03:45.390 ,5,0,0.,24.0,1.,24.0,1.,24.0,0.,24.0
1979-07-29 19:04:09.390 ,6,1,0.,24.0,0.,24.0,2.,24.0,0.,24.0
1979-07-29 19:04:33.390 ,6,0,0.,24.0,0.,24.0,0.,24.0,0.,24.0
1979-07-29 19:04:57.390 ,7,1,5.,24.0,0.,24.0,0.,24.0,0.,24.0
1979-07-29 19:05:21.390 ,7,0,29.,24.0,0.,24.0,0.,24.0,0.,24.0
1979-07-29 19:05:45.390 ,7,1,29.,24.0,0.,24.0,0.,24.0,0.,24.0
1979-07-29 19:06:09.390 ,7,0,30.,24.0,0.,24.0,0.,24.0,0.,24.0
1979-07-29 19:06:33.390 ,6,1,22.,24.0,0.,24.0,2.,24.0,0.,24.0
1979-07-29 19:06:57.390 ,6,0,1.,24.0,0.,24.0,0.,24.0,0.,24.0
1979-07-29 19:07:21.390 ,5,1,0.,24.0,0.,24.0,2.,24.0,0.,24.0
1979-07-29 19:07:45.390 ,5,0,0.,24.0,0.,24.0,1.,24.0,0.,24.0
1979-07-29 19:08:09.390 ,4,1,0.,24.0,0.,24.0,1.,24.0,0.,24.0
1979-07-29 19:08:33.390 ,4,0,0.,24.0,0.,24.0,2.,24.0,0.,24.0
1979-07-29 19:08:57.390 ,3,1,0.,24.0,0.,24.0,1.,24.0,0.,24.0
1979-07-29 19:09:21.390 ,3,0,0.,24.0,1.,24.0,1.,24.0,0.,24.0
1979-07-29 19:09:45.390 ,2,1,0.,24.0,0.,24.0,1.,24.0,0.,24.0
1979-07-29 19:10:09.390 ,2,0,0.,24.0,0.,24.0,1.,24.0,0.,24.0
1979-07-29 19:10:33.390 ,1,1,0.,24.0,0.,24.0,0.,24.0,0.,24.0
1979-07-29 19:10:57.390 ,1,0,1.,24.0,0.,24.0,3.,24.0,0.,24.0
1979-07-29 19:11:21.390 ,0,1,0.,24.0,0.,24.0,0.,24.0,0.,24.0
1979-07-29 19:11:45.390 ,0,0,0.,24.0,0.,24.0,0.,24.0,0.,24.0
1979-07-29 19:12:09.390 ,0,1,0.,24.0,0.,24.0,0.,24.0,0.,24.0
1979-07-29 19:12:33.390 ,0,0,0.,24.0,0.,24.0,3.,24.0,0.,24.0
1979-07-29 19:12:57.390 ,1,1,1.,24.0,0.,24.0,3.,24.0,0.,24.0
1979-07-29 19:13:21.390 ,1,0,0.,24.0,0.,24.0,2.,24.0,0.,24.0
1979-07-29 19:13:45.390 ,2,1,1.,24.0,0.,24.0,0.,24.0,0.,24.0
1979-07-29 19:14:09.390 ,2,0,0.,24.0,0.,24.0,0.,24.0,0.,24.0
1979-07-29 19:14:33.390 ,3,1,0.,24.0,0.,24.0,1.,24.0,0.,24.0
1979-07-29 19:14:57.390 ,3,0,0.,24.0,0.,24.0,0.,24.0,0.,24.0
1979-07-29 19:15:21.390 ,4,1,0.,24.0,0.,24.0,0.,24.0,0.,24.0
1979-07-29 19:15:45.390 ,4,0,0.,24.0,0.,24.0,1.,24.0,0.,24.0
1979-07-29 19:16:09.390 ,5,1,0.,24.0,0.,24.0,0.,24.0,0.,24.0
1979-07-29 19:16:33.390 ,5,0,0.,24.0,0.,24.0,0.,24.0,0.,24.0
1979-07-29 19:16:57.390 ,6,1,1.,24.0,0.,24.0,2.,24.0,0.,24.0
1979-07-29 19:17:21.390 ,6,0,0.,24.0,0.,24.0,1.,24.0,0.,24.0
1979-07-29 19:17:45.390 ,7,1,0.,24.0,0.,24.0,1.,24.0,0.,24.0
1979-07-29 19:18:09.390 ,7,0,30.,24.0,0.,24.0,0.,24.0,0.,24.0
1979-07-29 19:18:33.390 ,7,1,34.,24.0,0.,24.0,1.,24.0,0.,24.0
1979-07-29 19:18:57.390 ,7,0,27.,24.0,0.,24.0,0.,24.0,0.,24.0
1979-07-29 19:19:21.390 ,6,1,25.,24.0,0.,24.0,1.,24.0,0.,24.0
1979-07-29 19:19:45.390 ,6,0,0.,24.0,0.,24.0,2.,24.0,0.,24.0
1979-07-29 19:20:09.390 ,5,1,0.,24.0,0.,24.0,3.,24.0,0.,24.0
1979-07-29 19:20:33.390 ,5,0,0.,24.0,0.,24.0,0.,24.0,0.,24.0
1979-07-29 19:20:57.390 ,4,1,0.,24.0,0.,24.0,2.,24.0,0.,24.0
1979-07-29 19:21:21.390 ,4,0,0.,24.0,0.,24.0,0.,24.0,0.,24.0
1979-07-29 19:21:45.390 ,3,1,0.,24.0,0.,24.0,0.,24.0,0.,24.0
1979-07-29 19:22:09.390 ,3,0,0.,24.0,0.,24.0,0.,24.0,0.,24.0
1979-07-29 19:22:33.390 ,2,1,0.,24.0,0.,24.0,0.,24.0,0.,24.0
1979-07-29 19:22:57.390 ,2,0,0.,24.0,0.,24.0,3.,24.0,0.,24.0
1979-07-29 19:23:21.390 ,1,1,1.,24.0,0.,24.0,1.,24.0,0.,24.0
1979-07-29 19:23:45.390 ,1,0,0.,24.0,0.,24.0,0.,24.0,0.,24.0
1979-07-29 19:24:09.390 ,0,1,0.,24.0,0.,24.0,0.,24.0,0.,24.0
1979-07-29 19:24:33.390 ,0,0,0.,24.0,0.,24.0,1.,24.0,0.,24.0
1979-07-29 19:24:57.390 ,0,1,0.,24.0,0.,24.0,0.,24.0,0.,24.0
1979-07-29 19:25:21.390 ,0,0,1.,24.0,0.,24.0,1.,24.0,0.,24.0
1979-07-29 19:25:45.390 ,1,1,0.,24.0,0.,24.0,4.,24.0,0.,24.0
1979-07-29 19:26:09.390 ,1,0,0.,24.0,0.,24.0,1.,24.0,0.,24.0
1979-07-29 19:26:33.390 ,2,1,0.,24.0,0.,24.0,1.,24.0,0.,24.0
1979-07-29 19:26:57.390 ,2,0,0.,24.0,0.,24.0,0.,24.0,0.,24.0
1979-07-29 19:27:21.390 ,3,1,0.,24.0,0.,24.0,0.,24.0,0.,24.0
1979-07-29 19:27:45.390 ,3,0,0.,24.0,0.,24.0,0.,24.0,0.,24.0
1979-07-29 19:28:09.390 ,4,1,0.,24.0,0.,24.0,1.,24.0,0.,24.0
1979-07-29 19:28:33.390 ,4,0,1.,24.0,0.,24.0,0.,24.0,0.,24.0
1979-07-29 19:28:57.390 ,5,1,0.,24.0,0.,24.0,1.,24.0,0.,24.0
1979-07-29 19:29:21.390 ,5,0,0.,24.0,0.,24.0,0.,24.0,0.,24.0
1979-07-29 19:29:45.390 ,6,1,0.,24.0,0.,24.0,0.,24.0,0.,24.0
1979-07-29 19:30:09.390 ,6,0,0.,24.0,0.,24.0,1.,24.0,0.,24.0
1979-07-29 19:30:33.390 ,7,0,5.,24.0,0.,24.0,0.,24.0,0.,24.0
1979-07-29 19:30:57.390 ,7,0,29.,24.0,0.,24.0,1.,24.0,0.,24.0
1979-07-29 19:31:21.390 ,5,1,14.,24.0,0.,24.0,0.,24.0,0.,24.0
1979-07-29 19:31:45.390 ,1,1,0.,24.0,0.,24.0,1.,24.0,0.,24.0
1979-07-29 19:32:09.390 ,2,1,0.,24.0,0.,24.0,1.,24.0,0.,24.0
1979-07-29 19:32:33.390 ,6,1,1.,24.0,0.,24.0,1.,24.0,0.,24.0
1979-07-29 19:32:57.390 ,5,1,18.,24.0,0.,24.0,2.,24.0,0.,24.0
1979-07-29 19:33:21.390 ,1,1,1.,24.0,1.,24.0,2.,24.0,0.,24.0
1979-07-29 19:33:45.390 ,2,1,0.,24.0,0.,24.0,2.,24.0,0.,24.0
1979-07-29 19:34:09.390 ,6,1,0.,24.0,0.,24.0,2.,24.0,0.,24.0
1979-07-29 19:34:33.390 ,5,1,11.,24.0,0.,24.0,3.,24.0,0.,24.0
1979-07-29 19:34:57.390 ,1,1,1.,24.0,0.,24.0,1.,24.0,0.,24.0
1979-07-29 19:35:21.390 ,2,1,1.,24.0,0.,24.0,1.,24.0,0.,24.0
1979-07-29 19:35:45.390 ,6,1,0.,24.0,0.,24.0,0.,24.0,0.,24.0
1979-07-29 19:36:09.390 ,5,1,10.,24.0,0.,24.0,0.,24.0,0.,24.0
1979-07-29 19:36:33.390 ,1,1,0.,24.0,0.,24.0,0.,24.0,0.,24.0
1979-07-29 19:36:57.390 ,2,1,0.,24.0,0.,24.0,0.,24.0,0.,24.0
1979-07-29 19:37:21.390 ,6,1,1.,24.0,0.,24.0,1.,24.0,0.,24.0
1979-07-29 19:37:45.390 ,5,1,16.,24.0,0.,24.0,3.,24.0,0.,24.0
1979-07-29 19:38:09.390 ,1,1,0.,24.0,0.,24.0,0.,24.0,0.,24.0
1979-07-29 19:38:33.390 ,2,1,0.,24.0,1.,24.0,2.,24.0,0.,24.0
1979-07-29 19:38:57.390 ,6,1,0.,24.0,0.,24.0,1.,24.0,0.,24.0
1979-07-29 19:39:21.390 ,5,1,16.,24.0,0.,24.0,1.,24.0,0.,24.0
1979-07-29 19:39:45.390 ,1,1,0.,24.0,0.,24.0,2.,24.0,0.,24.0
1979-07-29 19:40:09.390 ,2,1,0.,24.0,0.,24.0,0.,24.0,0.,24.0
1979-07-29 19:40:33.390 ,6,1,0.,24.0,0.,24.0,2.,24.0,0.,24.0
1979-07-29 19:40:57.390 ,5,1,11.,24.0,0.,24.0,0.,24.0,0.,24.0
1979-07-29 19:41:21.390 ,1,1,0.,24.0,0.,24.0,1.,24.0,0.,24.0
1979-07-29 19:41:45.390 ,0,0,0.,24.0,0.,24.0,1.,24.0,0.,24.0
1979-07-29 19:42:09.390 ,0,0,0.,24.0,0.,24.0,0.,24.0,0.,24.0
1979-07-29 19:42:33.390 ,5,1,8.,24.0,0.,24.0,0.,24.0,0.,24.0
1979-07-29 19:42:57.390 ,5,0,0.,24.0,0.,24.0,0.,24.0,0.,24.0
1979-07-29 19:43:21.390 ,4,1,0.,24.0,0.,24.0,2.,24.0,0.,24.0
1979-07-29 19:43:45.390 ,4,0,0.,24.0,0.,24.0,1.,24.0,0.,24.0
1979-07-29 19:44:09.390 ,3,1,0.,24.0,0.,24.0,3.,24.0,0.,24.0
1979-07-29 19:44:33.390 ,3,0,0.,24.0,0.,24.0,0.,24.0,0.,24.0
1979-07-29 19:44:57.390 ,2,1,0.,24.0,0.,24.0,0.,24.0,0.,24.0
1979-07-29 19:45:21.390 ,2,0,0.,24.0,0.,24.0,0.,24.0,0.,24.0
1979-07-29 19:45:45.390 ,1,1,0.,24.0,0.,24.0,1.,24.0,0.,24.0
1979-07-29 19:46:09.390 ,1,0,0.,24.0,0.,24.0,2.,24.0,0.,24.0
1979-07-29 19:46:33.390 ,0,1,0.,24.0,0.,24.0,1.,24.0,0.,24.0
1979-07-29 19:46:57.390 ,0,0,0.,24.0,0.,24.0,1.,24.0,0.,24.0
1979-07-29 19:47:21.390 ,0,1,1.,24.0,0.,24.0,0.,24.0,0.,24.0
1979-07-29 19:47:45.390 ,0,0,1.,24.0,1.,24.0,2.,24.0,0.,24.0
1979-07-29 19:48:09.390 ,1,1,0.,24.0,0.,24.0,0.,24.0,0.,24.0
1979-07-29 19:48:33.390 ,1,0,0.,24.0,0.,24.0,0.,24.0,0.,24.0
1979-07-29 19:48:57.390 ,2,1,2.,24.0,0.,24.0,2.,24.0,0.,24.0
1979-07-29 19:49:21.390 ,2,0,1.,24.0,0.,24.0,2.,24.0,0.,24.0
1979-07-29 19:49:45.390 ,3,1,0.,24.0,0.,24.0,1.,24.0,0.,24.0
1979-07-29 19:50:09.390 ,3,0,0.,24.0,0.,24.0,1.,24.0,0.,24.0
1979-07-29 19:50:33.390 ,4,1,0.,24.0,0.,24.0,2.,24.0,0.,24.0
1979-07-29 19:50:57.390 ,4,0,0.,24.0,0.,24.0,0.,24.0,0.,24.0
1979-07-29 19:51:21.390 ,5,1,0.,24.0,1.,24.0,0.,24.0,0.,24.0
1979-07-29 19:51:45.390 ,5,0,0.,24.0,0.,24.0,1.,24.0,0.,24.0
1979-07-29 19:52:09.390 ,6,1,0.,24.0,0.,24.0,3.,24.0,0.,24.0
1979-07-29 19:52:33.390 ,6,0,1.,24.0,0.,24.0,0.,24.0,0.,24.0
1979-07-29 19:52:57.390 ,7,1,6.,24.0,0.,24.0,0.,24.0,0.,24.0
1979-07-29 19:53:21.390 ,7,0,19.,24.0,0.,24.0,0.,24.0,0.,24.0
1979-07-29 19:53:45.390 ,7,1,23.,24.0,0.,24.0,3.,24.0,0.,24.0
1979-07-29 19:54:09.390 ,7,0,35.,24.0,0.,24.0,1.,24.0,0.,24.0
1979-07-29 19:54:33.390 ,6,1,32.,24.0,0.,24.0,0.,24.0,0.,24.0
1979-07-29 19:54:57.390 ,6,0,1.,24.0,0.,24.0,0.,24.0,0.,24.0
1979-07-29 19:55:21.390 ,5,1,0.,24.0,0.,24.0,2.,24.0,0.,24.0
1979-07-29 19:55:45.390 ,0,0,0.,24.0,0.,24.0,0.,24.0,0.,24.0
1979-07-29 19:58:50.790 ,0,0,,0,,0,,0,,0
1979-07-29 19:58:57.390 ,0,0,0.,24.0,0.,24.0,0.,24.0,0.,24.0
1979-07-29 19:59:21.390 ,0,1,0.,24.0,0.,24.0,3.,24.0,0.,24.0
1979-07-29 19:59:45.390 ,0,0,0.,24.0,0.,24.0,0.,24.0,0.,24.0
1979-07-29 20:00:09.390 ,0,1,0.,24.0,0.,24.0,1.,24.0,0.,24.0
1979-07-29 20:00:33.390 ,0,0,0.,24.0,0.,24.0,2.,24.0,0.,24.0
1979-07-29 20:00:57.390 ,1,1,0.,24.0,0.,24.0,2.,24.0,0.,24.0
1979-07-29 20:01:21.390 ,1,0,1.,24.0,0.,24.0,3.,24.0,0.,24.0
1979-07-29 20:01:45.390 ,2,1,0.,24.0,0.,24.0,1.,24.0,0.,24.0
1979-07-29 20:02:09.390 ,2,0,0.,24.0,0.,24.0,0.,24.0,0.,24.0
1979-07-29 20:02:33.390 ,3,1,0.,24.0,0.,24.0,2.,24.0,0.,24.0
1979-07-29 20:02:57.390 ,3,0,0.,24.0,0.,24.0,1.,24.0,0.,24.0
1979-07-29 20:03:21.390 ,4,1,0.,24.0,0.,24.0,0.,24.0,0.,24.0
1979-07-29 20:03:45.390 ,4,0,0.,24.0,0.,24.0,3.,24.0,0.,24.0
1979-07-29 20:04:09.390 ,5,1,0.,24.0,0.,24.0,1.,24.0,0.,24.0
1979-07-29 20:04:33.390 ,5,0,0.,24.0,0.,24.0,0.,24.0,0.,24.0
1979-07-29 20:04:57.390 ,6,1,0.,24.0,0.,24.0,2.,24.0,0.,24.0
1979-07-29 20:05:21.390 ,6,0,0.,24.0,0.,24.0,1.,24.0,0.,24.0
1979-07-29 20:05:45.390 ,7,1,2.,24.0,0.,24.0,2.,24.0,0.,24.0
1979-07-29 20:06:09.390 ,7,0,40.,24.0,0.,24.0,2.,24.0,0.,24.0
1979-07-29 20:06:33.390 ,7,1,33.,24.0,0.,24.0,2.,24.0,0.,24.0
1979-07-29 20:06:57.390 ,7,0,34.,24.0,0.,24.0,0.,24.0,0.,24.0
1979-07-29 20:07:21.390 ,6,1,22.,24.0,0.,24.0,0.,24.0,0.,24.0
1979-07-29 20:07:45.390 ,6,0,1.,24.0,0.,24.0,2.,24.0,0.,24.0
1979-07-29 20:08:09.390 ,5,1,0.,24.0,0.,24.0,5.,24.0,0.,24.0
1979-07-29 20:08:33.390 ,5,0,0.,24.0,1.,24.0,1.,24.0,0.,24.0
1979-07-29 20:08:57.390 ,4,1,0.,24.0,0.,24.0,3.,24.0,0.,24.0
1979-07-29 20:09:21.390 ,4,0,0.,24.0,0.,24.0,3.,24.0,0.,24.0
1979-07-29 20:09:45.390 ,3,1,0.,24.0,0.,24.0,4.,24.0,0.,24.0
1979-07-29 20:10:09.390 ,3,0,0.,24.0,0.,24.0,1.,24.0,0.,24.0
1979-07-29 20:10:33.390 ,2,1,0.,24.0,0.,24.0,1.,24.0,0.,24.0
1979-07-29 20:10:57.390 ,2,0,0.,24.0,0.,24.0,1.,24.0,0.,24.0
1979-07-29 20:11:21.390 ,1,1,0.,24.0,0.,24.0,0.,24.0,0.,24.0
1979-07-29 20:11:45.390 ,1,0,0.,24.0,0.,24.0,2.,24.0,0.,24.0
1979-07-29 20:12:09.390 ,0,1,0.,24.0,1.,24.0,0.,24.0,0.,24.0
1979-07-29 20:12:33.390 ,0,0,0.,24.0,0.,24.0,2.,24.0,0.,24.0
1979-07-29 20:12:57.390 ,0,1,1.,24.0,0.,24.0,3.,24.0,0.,24.0
1979-07-29 20:13:21.390 ,0,0,0.,24.0,0.,24.0,2.,24.0,0.,24.0
1979-07-29 20:13:45.390 ,1,1,2.,24.0,0.,24.0,1.,24.0,0.,24.0
1979-07-29 20:14:09.390 ,1,0,0.,24.0,0.,24.0,2.,24.0,0.,24.0
1979-07-29 20:14:33.390 ,2,1,0.,24.0,0.,24.0,1.,24.0,0.,24.0
1979-07-29 20:14:57.390 ,2,0,0.,24.0,0.,24.0,0.,24.0,0.,24.0
1979-07-29 20:15:21.390 ,3,1,0.,24.0,0.,24.0,0.,24.0,0.,24.0
1979-07-29 20:15:45.390 ,3,0,0.,24.0,0.,24.0,1.,24.0,0.,24.0
1979-07-29 20:16:09.390 ,4,1,0.,24.0,0.,24.0,0.,24.0,0.,24.0
1979-07-29 20:16:33.390 ,4,0,0.,24.0,0.,24.0,0.,24.0,0.,24.0
1979-07-29 20:16:57.390 ,5,1,0.,24.0,0.,24.0,0.,24.0,0.,24.0
1979-07-29 20:17:21.390 ,5,0,0.,24.0,0.,24.0,1.,24.0,0.,24.0
1979-07-29 20:17:45.390 ,6,1,0.,24.0,0.,24.0,1.,24.0,0.,24.0
1979-07-29 20:18:09.390 ,6,0,1.,24.0,0.,24.0,2.,24.0,0.,24.0
1979-07-29 20:18:33.390 ,7,0,5.,24.0,0.,24.0,1.,24.0,0.,24.0
1979-07-29 20:18:57.390 ,7,0,31.,24.0,0.,24.0,2.,24.0,0.,24.0
1979-07-29 20:19:21.390 ,5,1,6.,24.0,0.,24.0,1.,24.0,0.,24.0
1979-07-29 20:19:45.390 ,1,1,0.,24.0,0.,24.0,1.,24.0,0.,24.0
1979-07-29 20:20:09.390 ,2,1,0.,24.0,0.,24.0,0.,24.0,0.,24.0
1979-07-29 20:20:33.390 ,6,1,0.,24.0,0.,24.0,0.,24.0,0.,24.0
1979-07-29 20:20:57.390 ,5,1,14.,24.0,0.,24.0,0.,24.0,0.,24.0
1979-07-29 20:21:21.390 ,1,1,0.,24.0,1.,24.0,0.,24.0,0.,24.0
1979-07-29 20:21:45.390 ,2,1,0.,24.0,0.,24.0,0.,24.0,0.,24.0
1979-07-29 20:22:09.390 ,6,1,0.,24.0,0.,24.0,3.,24.0,0.,24.0
1979-07-29 20:22:33.390 ,5,1,18.,24.0,0.,24.0,0.,24.0,0.,24.0
1979-07-29 20:22:57.390 ,1,1,1.,24.0,0.,24.0,0.,24.0,0.,24.0
1979-07-29 20:23:21.390 ,2,1,0.,24.0,1.,24.0,3.,24.0,0.,24.0
1979-07-29 20:23:45.390 ,6,1,0.,24.0,0.,24.0,1.,24.0,0.,24.0
1979-07-29 20:24:09.390 ,5,1,2.,24.0,0.,24.0,2.,24.0,0.,24.0
1979-07-29 20:24:33.390 ,1,1,0.,24.0,0.,24.0,1.,24.0,0.,24.0
1979-07-29 20:24:57.390 ,2,1,0.,24.0,0.,24.0,2.,24.0,0.,24.0
1979-07-29 20:25:21.390 ,6,1,0.,24.0,0.,24.0,7.,24.0,0.,24.0
1979-07-29 20:25:45.390 ,5,1,18.,24.0,0.,24.0,0.,24.0,0.,24.0
1979-07-29 20:26:09.390 ,1,1,0.,24.0,0.,24.0,1.,24.0,0.,24.0
1979-07-29 20:26:33.390 ,2,1,1.,24.0,1.,24.0,5.,24.0,0.,24.0
1979-07-29 20:26:57.390 ,6,1,0.,24.0,0.,24.0,2.,24.0,0.,24.0
1979-07-29 20:27:21.390 ,5,1,17.,24.0,0.,24.0,1.,24.0,0.,24.0
1979-07-29 20:27:45.390 ,1,1,0.,24.0,0.,24.0,2.,24.0,0.,24.0
1979-07-29 20:28:09.390 ,2,1,0.,24.0,0.,24.0,0.,24.0,0.,24.0
1979-07-29 20:28:33.390 ,6,1,0.,24.0,0.,24.0,1.,24.0,0.,24.0
1979-07-29 20:28:57.390 ,5,1,20.,24.0,0.,24.0,1.,24.0,0.,24.0
1979-07-29 20:29:21.390 ,1,1,0.,24.0,0.,24.0,2.,24.0,0.,24.0
1979-07-29 20:29:45.390 ,0,0,0.,24.0,0.,24.0,1.,24.0,0.,24.0
1979-07-29 20:30:09.390 ,0,0,0.,24.0,0.,24.0,2.,24.0,0.,24.0
1979-07-29 20:30:33.390 ,5,1,12.,24.0,0.,24.0,1.,24.0,0.,24.0
1979-07-29 20:30:57.390 ,5,0,0.,24.0,0.,24.0,3.,24.0,0.,24.0
1979-07-29 20:31:21.390 ,4,1,0.,24.0,0.,24.0,0.,24.0,0.,24.0
1979-07-29 20:31:45.390 ,4,0,0.,24.0,0.,24.0,2.,24.0,0.,24.0
1979-07-29 20:32:09.390 ,3,1,0.,24.0,0.,24.0,2.,24.0,0.,24.0
1979-07-29 20:32:33.390 ,3,0,0.,24.0,0.,24.0,1.,24.0,0.,24.0
1979-07-29 20:32:57.390 ,2,1,0.,24.0,0.,24.0,1.,24.0,0.,24.0
1979-07-29 20:33:21.390 ,2,0,0.,24.0,0.,24.0,0.,24.0,0.,24.0
1979-07-29 20:33:45.390 ,1,1,1.,24.0,0.,24.0,1.,24.0,0.,24.0
1979-07-29 20:34:09.390 ,1,0,1.,24.0,0.,24.0,1.,24.0,0.,24.0
1979-07-29 20:34:33.390 ,0,1,1.,24.0,0.,24.0,0.,24.0,0.,24.0
1979-07-29 20:34:57.390 ,0,0,0.,24.0,0.,24.0,0.,24.0,0.,24.0
1979-07-29 20:35:21.390 ,0,1,1.,24.0,0.,24.0,1.,24.0,0.,24.0
1979-07-29 20:35:45.390 ,0,0,0.,24.0,0.,24.0,0.,24.0,0.,24.0
1979-07-29 20:36:09.390 ,1,1,0.,24.0,0.,24.0,1.,24.0,0.,24.0
1979-07-29 20:36:33.390 ,1,0,0.,24.0,0.,24.0,1.,24.0,0.,24.0
1979-07-29 20:36:57.390 ,2,1,0.,24.0,0.,24.0,1.,24.0,0.,24.0
1979-07-29 20:37:21.390 ,2,0,0.,24.0,0.,24.0,4.,24.0,0.,24.0
1979-07-29 20:37:45.390 ,3,1,1.,24.0,0.,24.0,1.,24.0,0.,24.0